Location: Newark
(25.0000°N, 73.5000°E)
Time: 00:42:30
(UTC+00:00)

Vanguard 2 - Visible Passes

Search period start: 31 July 2021 00:00
Search period end: 10 August 2021 00:00
Orbit: 552 x 2937 km, 32.9° (Epoch: 30 July)

Date Brightness Start Highest point End Pass type
(mag) Time Alt. Az. Time Alt. Az. Time Alt. Az.
31 Jul 8.3 22:14:48 34° E 22:14:48 34° E 22:17:21 10° ENE visible
01 Aug 7.2 22:31:35 62° NE 22:31:35 62° NE 22:35:11 10° ENE visible
02 Aug 7.2 22:48:21 50° NW 22:48:46 52° NNW 22:52:56 10° ENE visible
03 Aug 7.9 23:05:07 27° WNW 23:06:38 38° NNW 23:10:41 10° ENE visible
04 Aug 8.3 23:21:53 15° WNW 23:24:33 31° N 23:28:31 10° ENE visible
05 Aug 9.8 21:37:15 14° ENE 21:37:15 14° ENE 21:37:48 10° ENE visible
05 Aug 8.6 23:39:03 10° WNW 23:42:31 28° N 23:46:28 10° ENE visible
06 Aug 9.3 21:54:01 21° NE 21:54:01 21° NE 21:55:28 10° ENE visible
06 Aug 8.7 23:57:00 10° WNW 00:00:29 29° N 00:04:34 10° ENE visible
07 Aug 8.7 22:10:47 27° NNE 22:10:47 27° NNE 22:13:10 10° NE visible
08 Aug 8.4 22:27:35 29° N 22:27:35 29° N 22:30:56 10° NE visible
09 Aug 8.5 22:44:23 24° NNW 22:45:24 27° N 22:48:51 10° ENE visible
